[[{"header":{"parameterUnit":"m.s-1","parameterCategory":1,"la1":30.2991,"la2":30.254,"lo1":-89.0895,"lo2":-89.0444,"dy":0.0017,"dx":0.0017,"nx":28,"ny":28,"refTime":"2023-08-07T21:00:00:Z","depth":0,"parameterNumber":2,"parameterNumberName":"U-component_of_WINDS"},"data":[0,0,0,0,0,0,0,0,0,0,0,0,0,0,0,0,0,0,0,0,0,0,0,0,0,0,0,0,0,0,0,0,0,0,0,0,0,0,0,0,0,0,0,0,0,0,0,0,0,0,0,0,0,0,0,0,0,0,5.7002,5.7002,0,5.708,5.7081,5.7081,5.6969,5.6965,5.6961,5.6958,5.7037,5.7043,5.7048,0,0,0,0,0,0,0,0,0,0,0,0,0,5.6753,5.6758,5.7001,5.7002,5.7003,5.7079,5.7081,5.7082,5.697,5.6965,5.696,5.6956,5.7035,5.7042,5.7049,0,0,0,0,0,0,0,0,0,0,0,0,0,5.6849,5.6759,5.7001,5.6957,5.6954,5.7079,5.7081,5.7082,5.6971,5.6965,5.6959,5.6953,5.7033,5.7041,5.705,5.7223,0,0,5.7077,5.708,0,0,0,0,0,0,0,0,5.6843,5.6858,5.6962,5.696,5.6957,5.7009,5.7022,5.7129,5.6972,5.6964,5.6957,5.6951,5.7032,5.7041,5.7068,5.7226,5.723,5.7077,5.7083,5.7086,5.7089,0,0,0,0,0,0,0,5.6837,5.6854,5.7032,5.6964,5.6961,5.6932,5.6939,5.7042,5.7031,5.6965,5.6957,5.6967,5.703,5.706,5.7069,5.7231,5.7077,5.7085,5.709,5.7094,5.7529,5.7535,0,0,0,0,0,0,5.6836,5.6849,5.703,5.7035,5.6884,5.6941,5.6949,5.6998,5.7029,5.7028,5.6972,5.6962,5.7048,5.7059,5.7072,5.7272,5.7086,5.7095,5.71,5.7523,5.7531,5.7538,0,0,0,0,0,0,5.6831,5.6853,5.7027,5.694,5.696,5.6952,5.7008,5.7003,5.7033,5.7035,5.7032,5.7006,5.7044,5.706,5.7185,5.7273,5.7098,5.7106,5.7515,5.7525,5.7534,5.7676,0,0,0,0,0,0,5.6824,5.6852,5.6918,5.6942,5.6965,5.714,5.7013,5.7008,5.7048,5.7035,5.7066,5.7065,5.7041,5.7172,5.7194,5.7282,5.7113,5.7507,5.752,5.7531,5.7664,5.769,5.7712,0,0,0,0,0,5.6816,5.6956,5.6922,5.6945,5.7048,5.7145,5.7158,5.7127,5.7056,5.7122,5.7122,5.7064,5.7261,5.7186,5.7209,5.7302,5.7502,5.7516,5.753,5.7653,5.7684,5.7711,0,0,0,0,0,0,5.6944,5.6959,5.6921,5.7074,5.7109,5.7126,5.7208,5.7162,5.7218,5.7203,5.7162,5.717,5.7303,5.7316,5.7232,5.7468,5.7369,5.7389,5.7455,5.7485,5.7508,5.7501,5.712,0,0,0,0,0,5.699,5.7068,5.7077,5.721,5.723,5.7216,5.7258,5.7231,5.7265,5.7279,5.729,5.7325,5.7394,5.7441,5.7505,5.7666,5.7668,5.774,5.7764,5.7784,5.78,5.7882,5.7912,5.7584,5.7584,5.7584,0,0,5.7085,5.7103,5.7155,5.7236,5.726,5.7341,5.723,5.7321,5.7379,5.7293,5.741,5.742,5.7456,5.7599,5.7662,5.7613,5.7892,5.7802,5.7818,5.7824,5.79,5.7931,5.7958,5.7594,5.7592,5.7591,0,0,5.7299,5.7323,5.7434,5.746,5.7498,5.7487,5.7514,5.7538,5.754,5.7658,5.7594,5.7663,5.7784,5.7811,5.7841,5.8064,5.801,5.8086,5.821,5.829,5.8316,5.8338,5.8413,5.8441,5.8103,5.8103,5.8104,0,5.7413,5.7532,5.7498,5.7592,5.7627,5.7554,5.7664,5.7692,5.7749,5.7774,5.7719,5.7866,5.7887,5.8032,5.8086,5.8114,5.8141,5.8081,5.8315,5.8337,5.8358,5.8429,5.8458,5.8112,5.8111,5.811,5.8109,0,5.7668,5.7752,5.7837,5.7892,5.7938,5.8041,5.802,5.8071,5.804,5.8035,5.8153,5.8174,5.8239,5.8273,5.8244,5.8414,5.8381,5.8322,5.8221,5.8398,5.8464,5.8491,5.8124,5.8121,5.8119,5.8116,0,0,5.7964,5.7997,5.8029,5.8051,5.8086,5.8149,5.8248,5.8311,5.8353,5.8395,5.8474,5.8577,5.8521,5.8555,5.8528,5.8599,5.8768,5.8529,5.8529,5.8569,5.8951,5.8993,5.9025,5.8734,5.8739,5.8743,5.8946,0,5.8174,5.8343,5.8314,5.8477,5.8551,5.8481,5.8566,5.8596,5.8594,5.8656,5.8653,5.8725,5.8648,5.8667,5.8734,5.8733,5.8843,5.8719,5.8804,5.8808,5.8793,5.906,5.9106,5.9296,5.8972,5.8977,5.898,0,5.8442,5.8491,5.8662,5.8682,5.8712,5.8789,5.8842,5.8904,5.8935,5.8928,5.8965,5.8925,5.902,5.892,5.9049,5.8965,5.8998,5.9003,5.901,5.9013,5.8902,5.9067,5.9357,5.9384,5.9021,5.9018,5.9015,0,5.8635,5.8745,5.886,5.8882,5.8909,5.8964,5.8978,5.9004,5.9042,5.9089,5.9113,5.9172,5.9203,5.9248,5.9223,5.9154,5.9355,5.9254,5.9349,5.935,5.9392,5.9389,5.9686,5.9421,5.942,5.942,5.9419,0,5.887,5.8976,5.8946,5.9017,5.9133,5.9097,5.9213,5.9218,5.9241,5.931,5.9254,5.932,5.9285,5.9348,5.9329,5.9436,5.9452,5.9447,5.944,5.945,5.945,5.9468,5.9453,5.9427,5.9426,5.9424,5.9423,0,5.9104,5.9089,5.9209,5.9225,5.9231,5.9315,5.9327,5.9392,5.9385,5.9473,5.9491,5.9481,5.9551,5.9531,5.9609,5.9596,5.973,5.9708,5.9719,5.9712,5.9806,5.9795,6.0123,6.0162,5.9875,5.9878,5.988,0,5.9254,5.9333,5.9357,5.9398,5.9416,5.9485,5.9523,5.9492,5.9534,5.9574,5.9633,5.9698,5.9748,5.9864,5.9862,5.992,5.9896,6.0007,5.9904,5.991,5.9892,5.9886,5.9892,6.0026,6.003,6.0032,6.0034,0,5.9519,5.9506,5.9564,5.9619,5.9667,5.9709,5.9745,5.9783,5.9753,5.9803,5.9874,5.9913,5.999,6.0054,6.0106,6.0118,6.0071,6.0067,6.0091,6.01,6.0101,6.0097,5.977,6.0059,6.0056,6.0055,6.0053,6.0052,5.9712,5.9777,5.9803,5.9868,5.9892,5.9927,5.9987,5.9988,6.0046,6.0106,6.0084,6.0164,6.019,6.0255,6.0274,6.0335,6.0293,6.0329,6.0337,6.0346,6.0355,6.0094,6.0345,6.0345,6.0344,6.0343,6.0343,0,5.9969,5.9982,6.0043,6.0095,6.0146,6.0097,6.0135,6.018,6.0251,6.028,6.033,6.0409,6.0471,6.0473,6.053,6.0578,6.0557,6.0594,6.0588,6.059,6.0392,6.0364,6.0609,6.0609,6.0609,6.0609,6.0609,6.0609,6.0109,6.0216,6.0207,6.0325,6.0336,6.0414,6.0439,6.047,6.0492,6.0583,6.0633,6.0635,6.0652,6.071,6.0763,6.0762,6.0783,6.0827,6.0818,6.0632,6.0605,6.058,6.0552,6.0834,6.0834,6.101,6.1012,6.1013]},{"header":{"parameterUnit":"m.s-1","parameterCategory":1,"la1":30.2991,"la2":30.254,"lo1":-89.0895,"lo2":-89.0444,"dy":0.0017,"dx":0.0017,"nx":28,"ny":28,"refTime":"2023-08-07T21:00:00:Z","depth":0,"parameterNumber":3,"parameterNumberName":"V-component_of_WINDS"},"data":[0,0,0,0,0,0,0,0,0,0,0,0,0,0,0,0,0,0,0,0,0,0,0,0,0,0,0,0,0,0,0,0,0,0,0,0,0,0,0,0,0,0,0,0,0,0,0,0,0,0,0,0,0,0,0,0,0,0,4.1231,4.1233,0,4.1395,4.1397,4.1399,4.1422,4.142,4.1419,4.1417,4.158,4.1586,4.1591,0,0,0,0,0,0,0,0,0,0,0,0,0,4.0931,4.0936,4.1231,4.1233,4.1235,4.1395,4.1397,4.14,4.1422,4.142,4.1418,4.1416,4.1578,4.1585,4.1592,0,0,0,0,0,0,0,0,0,0,0,0,0,4.1075,4.0938,4.1231,4.1266,4.1271,4.1395,4.1397,4.14,4.1422,4.142,4.1418,4.1416,4.1576,4.1584,4.1593,4.1692,0,0,4.1619,4.1623,0,0,0,0,0,0,0,0,4.1066,4.1086,4.1259,4.1264,4.1269,4.1386,4.1351,4.1498,4.1423,4.1365,4.1417,4.1414,4.1517,4.153,4.1566,4.17,4.1707,4.162,4.1625,4.1629,4.1631,0,0,0,0,0,0,0,4.1057,4.1079,4.1296,4.1261,4.1268,4.1271,4.1289,4.1379,4.1451,4.1369,4.1372,4.1391,4.1519,4.1558,4.157,4.1709,4.162,4.1628,4.1633,4.1636,4.1929,4.1931,0,0,0,0,0,0,4.1041,4.107,4.1291,4.1301,4.116,4.1279,4.1299,4.1351,4.1451,4.1464,4.1393,4.1391,4.1544,4.156,4.1576,4.1697,4.1629,4.1637,4.1642,4.1926,4.1929,4.1932,0,0,0,0,0,0,4.1034,4.106,4.1284,4.1186,4.1215,4.1286,4.1344,4.1355,4.1393,4.1468,4.1481,4.1419,4.1543,4.1564,4.1663,4.1703,4.1641,4.1649,4.1923,4.1927,4.1931,4.194,0,0,0,0,0,0,4.1026,4.1058,4.1098,4.1187,4.122,4.137,4.1347,4.136,4.1409,4.1409,4.1496,4.1508,4.1543,4.165,4.1671,4.1713,4.1656,4.192,4.1925,4.193,4.1936,4.1944,4.195,0,0,0,0,0,4.1015,4.1094,4.11,4.1127,4.1272,4.1373,4.1391,4.1431,4.1412,4.1452,4.1499,4.1505,4.1695,4.166,4.1684,4.1729,4.1918,4.1924,4.1929,4.1933,4.1942,4.195,0,0,0,0,0,0,4.1006,4.1106,4.1114,4.1225,4.129,4.1376,4.1428,4.1439,4.1511,4.1507,4.1551,4.1571,4.1667,4.1708,4.1667,4.1829,4.1804,4.1815,4.1799,4.1808,4.1815,4.1802,4.1663,0,0,0,0,0,4.1017,4.1093,4.1175,4.1264,4.1297,4.1356,4.1402,4.1426,4.1495,4.1523,4.1578,4.1643,4.1717,4.1765,4.1837,4.1942,4.196,4.1985,4.1992,4.1997,4.2006,4.2062,4.2073,4.1951,4.1951,4.1951,0,0,4.1041,4.1105,4.1149,4.1264,4.1318,4.1392,4.138,4.146,4.1515,4.1535,4.1631,4.1674,4.1749,4.1851,4.1899,4.1888,4.2043,4.2005,4.2008,4.2014,4.2069,4.208,4.2091,4.1955,4.1955,4.1954,0,0,4.1121,4.1178,4.1258,4.1312,4.1394,4.1432,4.1451,4.1536,4.1565,4.1663,4.1679,4.1744,4.1871,4.1923,4.1967,4.2064,4.2072,4.2087,4.2122,4.2176,4.2185,4.2194,4.2227,4.2238,4.2095,4.2095,4.2095,0,4.114,4.1255,4.1297,4.1376,4.1425,4.1447,4.1526,4.1576,4.1676,4.1708,4.1696,4.1854,4.1907,4.202,4.2044,4.2079,4.21,4.2077,4.2181,4.219,4.2199,4.223,4.2243,4.2096,4.2096,4.2096,4.2096,0,4.1272,4.1351,4.1405,4.1503,4.1558,4.1637,4.1688,4.1738,4.1757,4.1796,4.1894,4.1958,4.2042,4.2071,4.2091,4.2187,4.2177,4.2172,4.2148,4.2211,4.2241,4.2254,4.2098,4.2098,4.2097,4.2097,0,0,4.1353,4.1471,4.149,4.1534,4.1625,4.1686,4.1764,4.1848,4.1889,4.1957,4.2022,4.2128,4.2123,4.2172,4.2197,4.2245,4.2316,4.2234,4.2236,4.2245,4.2423,4.2425,4.2439,4.2321,4.2324,4.2326,4.2416,0,4.1443,4.1585,4.1624,4.1744,4.1816,4.1837,4.1905,4.1966,4.2005,4.207,4.2111,4.2185,4.2174,4.2204,4.2252,4.2297,4.2352,4.2291,4.238,4.2383,4.236,4.2455,4.2459,4.2541,4.2428,4.243,4.2432,0,4.1567,4.1638,4.1765,4.1845,4.1877,4.1937,4.2016,4.2079,4.2148,4.2172,4.2226,4.2246,4.2326,4.2298,4.2407,4.2364,4.2403,4.243,4.2434,4.2443,4.2411,4.2465,4.2568,4.2579,4.2451,4.245,4.2448,0,4.1611,4.1738,4.183,4.1867,4.1963,4.2004,4.2046,4.2113,4.216,4.2228,4.2258,4.2334,4.2375,4.2433,4.2472,4.2448,4.2576,4.2552,4.2597,4.2596,4.2623,4.262,4.2731,4.2649,4.2649,4.2649,4.2648,0,4.1707,4.1783,4.1851,4.1907,4.1993,4.2035,4.2118,4.216,4.2219,4.2282,4.2304,4.2362,4.2411,4.2475,4.2506,4.259,4.2609,4.2629,4.2636,4.2626,4.2624,4.2652,4.2646,4.2652,4.2651,4.2651,4.265,0,4.177,4.1819,4.192,4.2002,4.2024,4.2083,4.2152,4.2206,4.2245,4.2324,4.2345,4.2405,4.2481,4.2526,4.2622,4.2643,4.2736,4.2741,4.2713,4.2716,4.2757,4.2752,4.2889,4.2908,4.2815,4.2815,4.2816,0,4.1827,4.1887,4.1975,4.2019,4.2061,4.2133,4.2181,4.2224,4.2273,4.2355,4.2399,4.2477,4.2541,4.2662,4.2712,4.2785,4.2792,4.2835,4.2803,4.279,4.279,4.2786,4.2791,4.284,4.284,4.2841,4.2842,0,4.1923,4.1944,4.2014,4.2091,4.2148,4.2211,4.2273,4.2308,4.2361,4.2414,4.2493,4.2544,4.2642,4.2718,4.2795,4.2835,4.2846,4.2851,4.2865,4.2856,4.2836,4.2845,4.2726,4.2848,4.2847,4.2847,4.2846,4.2846,4.1984,4.2037,4.2107,4.2183,4.2234,4.2292,4.2346,4.2391,4.2459,4.2543,4.2564,4.2646,4.2711,4.2815,4.2857,4.292,4.2913,4.2934,4.2939,4.2943,4.2943,4.2827,4.2935,4.2934,4.2934,4.2934,4.2934,0,4.208,4.2126,4.2195,4.2282,4.2341,4.2348,4.2417,4.2465,4.2538,4.2598,4.2661,4.275,4.2824,4.288,4.2954,4.2994,4.3001,4.3012,4.3009,4.3017,4.2946,4.2926,4.3005,4.3005,4.3005,4.3005,4.3005,4.3005,4.2136,4.2226,4.2254,4.2368,4.2413,4.2495,4.2533,4.2585,4.2633,4.2732,4.2794,4.283,4.2888,4.2967,4.3034,4.3048,4.3074,4.3084,4.3098,4.303,4.3023,4.3015,4.2997,4.3089,4.3089,4.3164,4.3165,4.3165]}]]